Wind_Speed
17 17 18 18 17 18 18 17 18 19 19 21 20 20 20 18 18 17 17 20 23 24 22 22 23 23 23 23 24 27 29 30 34 32 25 28 37 40 41 42 41 40 38 38 37 39 38 34 33 34 34 35 35 32 33 35 35 36 36 35 35 34 33 31 29 30 31 31 30 30 30 30 31 33 35 36 36 37 35 32 34 37 37 37 36 35 34
18 18 18 17 17 16 16 17 17 19 20 20 20 20 20 19 18 18 19 22 24 24 23 22 22 22 23 25 26 27 28 28 30 27 22 25 34 41 42 42 42 42 40 37 35 35 37 34 32 34 34 33 32 32 33 34 35 36 35 34 34 33 32 31 29 29 31 31 32 32 32 32 33 34 34 34 34 33 31 29 30 33 35 36 35 36 35
17 18 17 15 15 16 18 20 21 22 22 21 20 20 19 19 20 20 22 24 24 24 24 22 22 23 24 26 27 27 28 26 23 21 20 23 30 38 42 42 41 41 40 38 35 33 34 33 31 32 33 32 32 32 33 34 35 34 33 33 34 33 32 33 31 30 31 33 34 34 34 34 34 32 31 32 33 31 31 31 29 29 32 32 31 32 32
17 16 16 16 17 20 22 24 25 24 22 21 20 19 19 20 22 23 25 25 24 23 23 23 24 25 26 27 28 28 26 22 17 15 17 23 28 34 39 41 40 39 38 37 35 33 34 33 31 31 33 33 33 33 33 34 33 33 33 34 34 33 33 34 32 29 29 31 33 32 32 33 33 32 32 32 32 32 32 31 29 28 29 29 29 28 26
16 16 16 19 21 24 25 26 25 24 23 22 21 21 22 23 23 25 25 25 24 24 23 24 25 26 26 25 24 23 20 16 13 14 17 22 27 31 35 38 40 40 37 36 35 33 33 34 31 31 33 33 33 34 34 33 33 33 33 34 35 34 33 33 33 32 32 31 31 30 30 30 31 31 32 32 32 32 31 30 27 26 26 26 26 25 24
16 17 20 23 25 26 27 26 24 23 24 23 23 23 25 25 25 26 25 25 25 25 24 25 25 25 23 19 16 16 15 12 13 18 20 21 25 29 31 34 39 41 38 36 35 33 34 35 33 31 32 34 34 35 35 34 33 33 34 34 35 34 33 33 33 34 33 30 28 28 29 29 29 29 30 31 30 29 29 28 25 24 24 23 22 23 23
18 20 24 26 28 28 28 26 25 25 25 23 23 24 25 25 26 26 26 26 26 26 25 26 25 24 21 17 16 16 14 14 17 20 20 21 24 26 29 32 37 39 37 35 35 34 35 35 34 33 33 34 34 34 35 34 33 33 34 35 35 34 34 33 33 34 33 30 29 29 28 29 29 28 28 28 28 27 27 27 25 25 24 22 20 21 21
21 24 27 29 30 30 28 27 25 26 26 24 23 25 25 26 27 27 27 27 27 26 26 26 25 23 21 19 18 16 16 20 22 22 19 21 24 27 29 32 34 36 35 33 33 34 33 31 32 34 33 32 32 32 32 33 33 34 35 35 34 34 34 34 33 33 33 32 31 30 29 29 29 29 29 28 28 27 27 26 25 24 23 22 21 21 21
24 27 29 30 31 30 29 28 26 27 26 25 24 25 26 27 28 29 29 29 29 28 26 26 24 23 23 21 18 18 22 25 24 23 21 20 22 26 29 31 33 34 33 32 32 32 31 29 31 33 31 28 28 27 27 29 31 33 34 34 33 34 35 35 34 34 35 35 33 32 30 30 30 30 30 29 29 28 27 26 25 23 22 21 21 21 21
27 29 30 30 30 30 29 29 28 27 26 26 26 27 28 31 33 33 32 31 29 26 25 25 22 22 22 21 20 22 26 27 27 27 26 23 22 25 28 29 31 33 33 34 34 33 31 30 31 31 29 28 26 24 24 25 27 29 31 33 33 33 34 34 34 35 34 34 35 34 32 32 33 32 31 30 29 28 27 26 25 23 22 21 20 19 20
29 30 30 30 30 30 29 28 28 28 28 27 28 30 32 35 36 34 31 29 26 23 23 21 18 17 18 18 21 26 27 26 28 29 29 29 27 27 27 27 30 33 33 34 34 33 31 30 30 29 29 28 27 26 25 26 27 28 29 30 31 32 33 33 34 34 32 32 33 34 33 34 34 33 32 31 30 28 27 26 25 24 22 21 20 20 20
29 29 30 30 29 27 26 25 26 28 30 30 31 34 36 36 35 33 30 28 24 21 19 16 14 14 15 15 20 25 26 25 27 29 29 29 29 30 30 29 31 33 34 33 32 31 30 28 28 28 27 27 27 26 27 28 29 30 31 32 32 32 32 32 32 33 32 31 32 33 34 34 32 31 32 32 31 30 29 27 26 26 24 23 23 23 22
27 28 28 27 26 25 23 22 23 26 30 33 35 36 35 34 32 30 28 26 25 22 18 14 13 13 12 12 17 22 23 23 24 26 26 25 27 30 30 28 28 29 31 31 30 28 28 27 27 25 25 27 26 24 25 26 27 29 31 32 33 33 33 33 32 33 33 33 34 35 35 33 32 32 32 31 31 31 30 29 28 27 26 25 26 25 24
25 26 25 24 24 24 23 23 24 27 31 34 36 35 33 31 30 28 27 27 26 23 18 16 15 13 12 14 16 18 20 20 20 21 20 20 22 25 24 24 25 24 24 26 27 27 26 26 26 24 24 26 25 24 25 25 26 27 28 29 31 32 33 33 32 32 33 33 35 34 33 32 32 32 31 31 30 30 29 28 28 27 26 25 26 26 25
25 24 22 21 22 23 24 25 27 29 32 34 34 33 31 28 25 25 27 28 26 21 17 16 16 14 14 16 16 16 18 18 16 16 16 15 16 18 19 20 22 21 21 24 27 26 25 25 24 23 23 24 23 24 25 24 24 25 26 26 27 29 29 30 31 31 30 31 31 32 31 31 30 31 31 31 30 30 29 28 28 27 27 26 26 27 27
22 20 19 19 20 21 24 28 30 31 32 33 32 30 27 25 23 24 26 25 22 18 15 14 13 13 14 16 16 16 17 16 15 14 13 12 12 14 16 17 17 16 17 20 22 22 21 22 22 21 20 19 18 19 21 21 20 22 23 24 25 26 26 27 28 28 27 28 30 30 30 29 28 29 30 30 30 30 29 29 29 28 28 28 28 28 28
18 17 17 17 18 20 25 31 33 31 28 27 26 25 23 22 22 22 22 20 18 15 13 12 12 11 12 14 14 14 14 14 14 13 12 11 11 10 11 12 12 13 14 16 16 17 17 18 18 18 17 16 16 15 16 17 17 17 19 21 22 24 25 26 27 25 24 26 28 28 28 27 27 28 28 28 28 28 29 30 29 27 26 27 27 27 27
16 15 14 15 17 21 28 34 33 28 23 21 21 22 22 21 19 19 19 18 17 15 13 12 12 12 11 13 13 13 12 12 12 11 10 9 8 8 7 7 8 10 11 13 14 15 16 16 16 16 16 16 16 16 16 17 17 17 18 19 20 22 23 24 25 25 24 24 25 25 26 26 25 26 26 26 27 27 28 29 26 24 24 24 23 23 24
14 13 14 18 22 26 31 33 29 23 21 20 20 21 23 21 18 17 16 15 15 14 13 13 14 13 12 12 13 13 12 11 11 10 10 9 8 8 8 8 9 9 10 12 13 14 15 15 16 16 16 16 16 17 17 18 19 19 19 20 21 22 23 24 24 24 24 24 24 24 24 24 24 24 25 26 26 27 27 26 24 24 24 23 22 22 22
11 13 17 22 25 28 30 29 25 21 20 21 21 22 23 21 17 14 13 13 13 13 13 13 14 14 13 13 13 12 12 11 11 10 10 10 10 9 9 9 10 10 11 12 13 14 14 15 15 16 15 15 17 18 18 19 20 20 20 21 22 22 23 24 25 25 25 25 25 25 24 24 24 25 25 26 26 25 23 22 22 23 23 22 22 22 22
11 14 19 21 22 24 26 26 24 21 20 20 21 23 23 20 15 10 9 11 13 13 13 13 13 14 14 14 13 13 12 11 11 10 10 10 10 10 10 10 10 10 10 11 13 13 14 15 16 16 16 16 17 19 19 20 20 21 22 22 23 23 23 23 23 24 25 24 25 25 24 24 25 25 25 25 24 23 22 21 21 21 21 21 21 21 21
12 15 18 19 20 22 24 25 24 22 20 20 21 21 20 18 14 10 9 10 12 12 12 12 12 13 14 14 14 13 11 10 10 9 8 8 8 8 8 8 9 9 9 10 11 12 14 14 15 17 18 18 18 19 19 20 20 21 22 22 22 23 23 23 23 23 24 25 25 25 25 25 25 24 24 24 23 23 22 22 21 20 20 20 20 20 20
14 15 17 19 21 23 23 23 22 20 20 20 20 19 18 16 13 12 11 10 11 11 11 11 11 11 11 11 11 11 10 9 8 7 7 7 7 7 7 7 8 8 9 10 10 11 12 13 14 15 16 17 18 19 19 19 20 21 21 22 22 22 23 23 23 23 24 25 25 25 25 25 24 24 24 24 24 23 23 22 22 21 21 20 20 19 19
16 16 17 20 21 21 20 21 20 19 18 18 18 17 16 15 14 13 11 10 10 10 9 9 8 8 8 8 7 7 7 7 6 6 6 6 6 7 7 7 8 8 9 10 10 11 12 12 13 14 15 16 16 17 18 19 20 21 21 21 21 22 22 22 22 22 23 23 23 23 24 24 24 23 23 23 24 23 23 23 22 22 21 21 20 20 19
18 18 19 20 20 19 18 18 18 17 16 16 15 15 14 13 12 12 10 9 9 8 7 7 6 6 6 6 6 5 5 5 5 5 5 5 6 7 7 7 8 8 9 10 10 11 12 13 13 14 15 15 16 16 17 18 19 20 20 21 21 21 20 20 20 21 21 21 21 22 22 22 22 22 22 22 22 22 22 21 21 21 20 20 20 19 19
19 19 20 20 20 18 17 17 16 15 15 14 14 13 12 12 11 10 9 8 7 7 6 5 5 5 5 4 4 4 4 4 4 5 5 5 6 7 7 8 8 9 10 11 11 12 13 13 14 15 15 16 17 18 18 19 19 20 20 20 20 20 20 20 20 20 20 20 20 20 20 21 21 21 21 21 21 20 20 20 19 19 19 18 18 17 16
19 20 20 20 19 18 17 16 15 13 12 11 11 11 10 10 9 9 8 7 6 6 5 4 4 3 3 3 3 3 4 4 4 4 5 5 6 6 7 8 8 9 9 10 11 12 12 13 13 14 15 16 17 18 19 20 20 21 21 21 20 20 20 20 21 21 20 20 20 20 20 20 20 21 21 20 20 20 20 19 18 17 17 16 15 14 14
18 18 18 18 18 17 16 14 12 10 9 9 9 9 8 9 8 7 7 6 5 4 4 3 3 3 2 2 2 2 3 3 3 4 4 5 5 6 7 7 8 8 8 9 10 10 11 11 11 12 13 14 15 17 18 19 20 21 21 21 20 20 20 20 21 21 21 21 21 21 20 20 21 21 21 20 20 20 19 18 17 16 14 13 13 13 13
16 15 16 15 14 14 14 12 10 9 8 8 8 7 7 7 7 6 6 4 3 3 2 2 2 2 2 1 1 1 1 2 3 3 3 3 4 4 5 6 6 7 8 9 9 9 9 9 10 10 11 12 13 15 16 18 19 20 21 20 20 20 20 20 20 21 21 21 21 21 21 21 21 20 20 20 20 19 18 16 15 15 14 13 13 13 13
17 16 15 14 12 12 11 10 9 8 8 7 7 7 7 6 6 5 4 3 2 1 1 1 1 2 2 1 1 2 3 3 4 4 4 4 4 4 4 5 5 6 7 7 8 7 7 8 8 8 9 10 11 13 15 17 18 20 20 21 21 21 21 21 21 21 21 21 21 20 20 20 20 19 19 19 18 17 16 16 15 15 14 14 14 14 14
18 18 16 14 13 12 10 9 9 9 8 7 7 6 5 4 4 3 3 2 2 1 1 1 2 2 2 3 4 5 5 5 5 5 4 4 3 3 3 4 5 6 7 8 7 7 6 6 6 6 7 8 9 9 11 14 16 17 19 19 20 20 21 21 21 21 21 21 20 20 19 19 18 17 17 16 16 16 15 15 16 16 16 16 16 16 15
19 19 17 15 14 12 11 10 10 9 8 7 6 5 4 3 3 2 2 2 2 2 1 1 2 3 4 7 8 7 5 4 4 4 4 4 4 4 6 7 9 10 11 10 9 8 7 6 6 6 7 8 8 8 8 10 12 14 15 16 17 18 19 19 20 20 20 20 20 19 18 17 17 17 16 16 15 15 16 16 17 17 17 17 17 17 15
21 20 19 17 15 13 12 12 11 10 8 7 6 5 4 3 3 2 2 2 2 2 1 0 1 4 8 8 7 5 5 5 5 5 6 6 7 9 10 11 11 11 10 10 10 9 7 7 6 7 10 10 10 9 9 8 10 11 12 13 14 15 16 17 18 18 19 19 20 19 18 17 16 17 17 16 16 16 17 18 19 19 19 18 17 16 14
23 22 21 19 17 15 13 12 12 10 9 7 6 5 5 4 3 3 3 3 3 2 3 4 5 7 8 7 6 6 7 7 7 7 8 9 10 10 11 11 10 9 8 8 8 8 7 7 6 7 11 13 13 11 10 9 10 11 12 12 13 13 14 14 15 16 16 16 17 18 19 17 15 15 16 17 18 19 19 20 20 19 18 17 16 14 14
25 25 24 22 21 18 15 13 12 11 10 8 6 6 6 6 5 4 4 4 4 4 6 8 8 7 6 5 6 8 8 8 9 9 10 11 10 10 11 11 10 9 9 8 9 8 9 9 9 7 10 15 15 13 12 11 12 13 14 14 14 14 14 14 14 14 14 14 14 17 18 18 17 17 18 20 21 21 20 20 19 18 17 16 15 15 14
27 27 26 25 24 22 19 16 14 13 11 8 7 7 8 7 6 6 5 5 5 6 8 9 8 7 5 5 7 9 10 11 11 11 12 13 12 12 11 12 12 13 13 12 11 11 11 12 11 9 10 14 16 15 15 14 14 14 14 15 16 16 16 16 15 15 15 14 14 16 18 19 19 19 20 20 20 20 19 19 18 17 16 16 16 15 14
27 28 28 27 26 24 22 19 17 16 13 10 9 9 10 9 8 7 7 6 6 8 10 10 9 8 7 8 10 11 12 13 14 14 15 15 15 14 14 14 15 16 15 14 13 12 13 14 14 13 14 16 17 18 18 17 17 16 15 14 15 16 17 18 17 17 16 14 14 15 17 18 19 20 19 18 18 18 17 17 17 17 17 17 16 15 12
27 28 29 29 28 26 24 22 20 18 16 13 11 12 12 11 10 9 8 8 8 9 11 11 10 10 11 11 12 12 13 14 14 14 15 15 16 15 14 14 15 15 14 14 15 14 14 15 15 15 15 16 17 18 18 17 17 16 15 15 14 14 16 17 18 19 18 16 15 15 16 16 17 17 17 17 17 17 17 17 17 17 17 16 15 13 11
27 28 29 30 30 28 27 25 23 21 18 16 15 15 15 13 11 10 10 10 10 11 12 12 12 12 12 12 12 12 12 12 12 12 13 13 14 14 13 13 13 13 13 14 14 14 14 14 15 15 14 14 15 15 15 15 14 13 13 13 13 13 13 14 14 15 16 16 16 16 16 16 16 16 16 16 16 16 16 17 17 16 15 14 13 11 11
27 28 28 29 30 30 29 28 25 23 21 19 18 17 17 15 13 12 12 13 12 13 13 13 13 13 13 12 11 11 10 10 11 11 11 11 11 12 12 12 12 12 12 13 13 13 14 14 14 14 13 13 13 13 13 12 12 11 11 11 11 12 12 12 12 12 13 14 15 15 15 15 15 14 14 15 15 16 16 16 15 14 13 12 12 11 11
28 28 28 28 29 30 29 28 27 25 23 21 20 19 18 17 15 14 14 15 15 15 15 14 14 13 13 12 11 10 9 9 9 10 10 9 9 9 10 10 10 10 11 11 11 12 12 13 13 13 13 12 12 12 12 12 11 10 10 10 10 10 10 11 11 12 12 12 13 13 13 13 13 13 13 14 15 15 15 15 14 13 13 12 12 12 11
28 28 28 28 28 29 28 28 27 26 24 23 22 21 20 18 17 16 17 17 17 16 16 16 15 14 13 12 12 11 9 8 8 8 8 9 9 9 9 9 10 10 10 10 10 10 10 11 11 11 10 10 10 10 10 10 10 10 10 10 9 9 10 10 10 10 10 10 11 11 12 12 13 13 13 14 14 14 14 14 13 13 13 13 12 12 11
27 27 27 27 28 28 28 27 27 26 25 23 22 21 20 19 18 17 18 19 19 18 18 17 16 15 14 14 13 12 11 10 9 9 8 8 9 9 9 9 10 10 10 11 10 10 9 8 8 8 8 8 8 8 8 8 8 8 8 9 9 9 9 9 9 9 9 10 10 11 11 12 13 13 14 14 14 14 14 14 14 13 13 13 12 12 12
26 26 26 27 27 27 27 27 26 26 25 23 22 21 21 20 19 19 19 20 21 20 20 19 18 17 16 15 14 14 13 12 11 10 10 9 9 9 9 10 10 10 11 11 10 9 8 7 7 7 7 7 6 6 6 7 7 7 7 7 8 8 8 9 9 9 9 10 10 11 11 12 13 13 14 14 14 14 14 14 13 13 13 13 12 12 12
27 26 26 26 26 27 27 27 26 25 24 23 22 22 22 22 22 21 21 22 23 22 22 21 20 19 18 17 16 15 14 13 12 12 11 11 10 10 10 10 10 10 11 11 10 9 8 7 6 5 5 5 4 5 5 5 5 6 6 6 6 7 7 7 8 9 9 9 10 10 11 12 13 14 14 14 14 14 14 14 14 13 13 13 13 13 13
28 27 27 27 27 27 27 26 26 25 25 24 24 24 24 25 25 23 23 23 24 24 24 23 22 21 19 18 17 16 15 14 14 13 12 12 11 11 11 11 11 11 11 11 11 10 8 7 6 5 4 4 3 4 4 4 4 5 5 5 5 5 5 6 6 7 7 8 9 10 10 11 12 13 14 14 14 13 13 13 12 12 12 12 13 13 12
29 28 28 28 28 27 27 27 27 26 26 25 26 26 27 27 26 25 24 24 25 25 25 24 23 22 21 19 19 18 17 16 15 14 14 13 12 12 12 12 12 12 12 12 11 10 9 8 7 6 6 6 5 5 6 6 6 5 5 5 5 5 5 5 5 5 6 7 8 8 9 9 10 11 11 11 11 11 10 10 10 10 11 12 12 12 11
30 30 29 29 28 28 27 28 28 28 28 27 28 28 28 28 27 26 25 25 25 25 26 26 25 24 23 21 20 19 18 17 16 16 15 14 13 13 12 12 13 14 14 13 11 10 10 10 9 8 8 7 8 8 8 8 7 7 7 7 6 6 6 5 5 5 5 6 7 8 9 9 9 9 9 10 9 9 9 9 10 10 11 12 11 11 10
32 31 30 30 29 28 28 29 29 29 29 29 29 29 29 29 28 27 26 26 25 26 26 26 26 25 24 23 22 21 20 19 18 17 16 16 15 14 14 14 15 16 15 13 11 9 10 10 10 9 9 9 9 9 9 9 8 8 8 8 8 7 7 7 6 6 6 7 8 9 10 10 10 10 10 10 10 10 10 10 11 12 12 12 11 11 10
34 33 31 31 30 30 30 30 30 30 30 30 30 30 30 30 29 28 27 26 26 26 26 27 27 26 25 24 23 22 21 20 19 19 18 17 17 16 16 17 18 18 16 13 10 9 10 11 11 10 10 10 10 10 9 9 9 9 9 8 8 8 8 8 7 7 7 7 8 9 10 11 11 11 11 11 10 10 11 11 12 13 13 13 12 11 11
36 35 33 32 32 31 31 31 31 31 31 31 31 31 30 30 29 29 28 27 26 26 26 26 26 25 25 25 24 24 22 22 21 20 19 19 18 18 19 20 20 18 16 13 11 10 11 12 12 12 11 11 10 10 10 10 10 10 9 9 9 9 9 9 9 8 8 8 9 10 11 12 12 12 11 11 11 11 11 12 13 13 14 13 12 11 11
37 36 35 34 33 33 32 32 32 32 32 31 31 31 31 31 30 30 29 27 26 26 25 24 24 25 25 25 25 25 24 23 23 22 21 20 20 20 22 22 21 18 14 12 11 12 14 14 13 12 11 11 11 11 11 10 10 10 10 10 10 10 10 10 10 9 9 9 9 11 12 12 12 12 12 11 11 11 11 12 13 13 14 14 14 13 13
Wind_Direction
98 103 107 113 121 127 132 136 138 140 140 143 146 148 148 148 146 142 136 138 148 155 156 156 157 162 169 173 172 172 175 177 179 179 171 168 175 178 177 178 180 180 181 181 181 184 187 188 191 194 194 195 196 195 197 199 198 195 194 193 194 195 194 194 197 202 206 209 207 205 204 203 202 204 207 209 209 211 214 219 224 224 224 226 227 229 231
98 104 109 117 122 126 127 127 131 136 138 141 146 150 150 148 147 143 138 140 147 151 154 155 157 161 164 165 165 166 168 172 176 180 178 173 177 179 179 180 182 182 183 184 183 184 187 188 190 192 193 193 192 193 196 199 200 197 194 194 195 193 193 194 196 198 200 202 203 203 201 200 201 202 204 205 208 210 209 214 222 224 223 225 228 232 236
100 106 110 114 115 116 117 118 122 127 131 138 143 146 146 144 145 143 139 142 146 148 152 154 155 156 157 157 158 159 162 165 171 180 186 183 180 181 181 182 184 186 186 186 186 186 187 188 188 188 190 190 190 193 195 198 200 197 193 193 194 194 196 196 196 198 200 200 201 201 199 198 198 198 200 202 205 206 206 210 218 220 220 221 225 231 235
99 104 106 107 107 109 111 112 114 118 123 126 126 128 132 135 138 140 139 141 143 145 148 148 149 150 151 153 157 158 161 165 172 182 188 187 184 183 184 185 187 189 190 189 188 188 188 190 190 188 187 187 188 190 192 194 195 193 192 192 192 195 200 199 197 199 204 204 204 202 199 198 197 196 198 201 203 205 207 210 218 223 222 222 225 229 233
96 99 101 103 105 108 109 110 112 116 117 115 113 116 121 126 132 135 138 141 142 142 143 144 145 146 147 150 156 160 164 168 177 186 187 185 184 184 184 186 188 190 191 192 192 190 190 190 190 189 187 185 185 187 189 190 189 189 190 191 191 194 199 201 198 198 201 204 205 203 198 198 197 196 196 199 203 207 209 211 216 221 223 224 227 229 231
93 97 100 105 109 110 110 111 111 112 110 110 114 118 120 124 129 133 135 137 138 138 138 141 141 138 136 139 143 155 163 159 167 183 184 178 178 181 181 184 188 190 191 194 194 191 188 187 186 185 184 183 183 185 185 185 186 187 189 191 192 193 197 201 200 201 201 200 201 201 198 198 198 198 197 200 205 208 212 216 219 222 223 224 226 228 229
94 99 106 111 113 112 111 111 111 109 107 110 116 119 121 125 128 129 131 133 134 135 135 134 131 128 129 134 141 154 152 135 152 178 181 170 170 174 175 179 185 190 192 193 192 187 183 182 183 183 182 181 182 185 185 184 185 188 190 192 192 191 196 200 202 203 201 196 196 199 199 199 199 201 202 206 210 213 217 221 223 225 227 226 226 230 231
99 107 113 114 113 111 109 109 108 107 108 111 116 119 122 125 125 126 128 129 129 129 127 125 123 123 128 133 140 142 121 118 148 175 175 162 163 168 171 174 179 186 189 186 185 184 182 181 181 180 181 182 182 184 186 185 185 187 190 193 192 190 194 199 201 203 202 198 197 199 199 199 201 204 207 211 215 219 221 222 224 226 229 230 232 234 235
108 113 115 113 111 108 107 106 105 106 109 112 116 118 120 122 123 123 125 124 122 121 122 125 126 126 129 131 131 119 99 105 136 160 160 153 158 166 172 175 178 184 184 179 178 181 181 181 181 178 177 180 182 182 186 188 188 189 190 192 192 191 193 197 198 199 200 200 200 202 202 204 205 208 212 214 216 219 222 223 226 228 231 234 234 233 233
114 115 113 110 107 105 104 104 104 106 110 114 116 118 120 122 123 124 123 121 120 122 127 132 132 133 135 134 126 114 101 100 116 135 147 150 152 160 168 173 176 179 178 175 174 176 177 178 180 178 176 177 178 177 182 187 191 193 193 192 191 191 194 199 200 199 200 201 203 205 206 207 208 208 211 214 216 219 223 226 229 231 233 234 233 230 229
116 114 111 108 105 103 102 104 106 109 112 115 119 121 122 124 123 123 123 122 123 127 131 130 131 138 143 136 124 116 110 104 106 120 140 151 153 155 157 158 162 166 169 171 171 171 174 175 175 176 178 179 176 173 177 183 186 189 193 194 194 193 194 200 203 203 203 203 205 207 208 209 210 210 212 215 218 221 225 228 232 235 236 235 232 231 232
116 112 109 107 104 103 104 107 110 115 118 119 122 123 123 123 122 120 121 122 123 127 128 123 124 136 144 138 127 120 115 111 109 114 129 142 150 153 151 150 155 160 164 168 168 170 172 171 169 171 174 177 176 175 178 182 183 185 189 192 195 196 196 199 204 206 208 209 208 211 213 213 213 215 217 220 222 225 229 232 236 239 239 236 234 236 240
114 110 107 105 104 105 106 106 110 116 120 122 125 125 122 120 120 119 121 122 122 124 127 125 126 133 139 141 134 126 121 120 119 119 121 126 137 149 153 156 162 166 168 168 169 171 172 169 168 169 171 173 175 176 178 182 183 185 188 191 194 197 198 201 203 205 208 211 212 214 216 216 217 220 223 224 227 230 233 236 239 240 240 238 238 242 247
112 108 106 106 106 106 104 105 111 118 122 126 128 126 122 118 117 120 122 121 121 125 131 133 132 133 138 142 138 131 125 123 124 126 125 123 129 139 147 153 157 158 161 165 167 170 171 169 167 168 169 169 171 173 175 178 181 184 187 190 193 196 199 202 205 207 209 211 214 217 219 219 220 223 225 227 230 233 236 237 239 241 240 239 240 243 247
110 108 108 108 106 104 104 108 115 121 125 129 130 126 123 120 118 121 124 124 126 129 133 135 134 134 138 138 134 129 127 126 125 125 127 127 127 130 134 140 145 145 145 151 157 160 161 160 160 161 161 161 162 165 167 170 175 179 184 187 191 195 197 200 204 209 211 214 217 219 221 220 221 224 227 229 232 234 236 237 238 239 239 240 241 243 246
110 108 106 103 101 104 110 115 120 124 127 130 131 129 126 121 118 123 128 127 128 129 128 131 133 133 136 134 131 131 131 130 129 128 130 129 125 123 125 130 139 143 144 148 154 158 159 157 158 161 163 163 164 164 166 170 172 177 183 188 192 195 197 199 202 206 209 213 217 221 223 223 224 226 228 230 232 234 237 239 239 239 241 243 244 245 246
108 104 101 99 100 110 121 124 125 125 124 126 130 134 133 123 119 127 133 131 129 127 127 134 137 135 135 134 135 139 138 135 134 135 137 137 133 130 129 130 137 145 149 153 159 164 165 164 165 168 172 176 177 176 177 180 180 181 185 189 193 195 197 199 201 204 208 212 216 220 223 224 225 227 229 230 232 234 236 239 239 239 241 244 245 245 245
102 99 96 98 107 120 129 131 129 125 121 124 133 140 140 132 125 131 138 139 137 133 133 139 145 146 144 141 141 143 143 143 143 143 144 148 150 154 158 161 161 159 159 164 168 171 173 175 177 179 183 187 190 192 193 194 195 196 196 196 198 199 199 199 201 203 207 211 214 218 222 223 225 227 228 229 231 232 234 237 238 237 239 243 246 246 245
100 94 98 106 115 124 132 135 133 126 124 131 142 148 148 145 137 131 132 137 139 137 135 141 148 153 154 149 144 144 145 148 153 157 160 161 164 169 173 178 181 179 177 179 181 183 185 187 190 193 197 200 202 204 206 206 208 209 208 208 208 208 208 208 208 210 213 217 220 223 225 226 226 227 227 228 229 231 234 237 238 238 240 243 245 246 245
105 101 108 114 117 122 128 132 132 129 131 140 149 154 156 156 150 134 119 120 130 135 136 140 145 150 152 150 149 149 150 153 158 166 169 168 168 169 172 177 181 183 185 187 190 192 195 198 201 203 205 208 210 211 213 214 214 215 216 216 216 216 217 218 219 220 222 226 228 229 229 228 227 226 227 228 230 232 234 236 236 237 238 240 241 242 243
118 114 117 118 120 123 125 125 124 123 129 140 150 158 163 165 163 149 120 116 125 132 135 138 142 146 149 152 154 156 156 158 163 169 173 173 172 170 170 175 179 183 187 190 193 195 198 201 205 206 208 211 214 216 217 218 219 218 218 219 219 219 220 221 222 224 224 227 229 228 227 227 226 225 226 228 229 230 231 232 232 233 234 234 235 237 238
126 124 122 119 122 125 124 121 119 117 120 129 141 153 162 168 171 164 142 130 133 135 137 139 144 147 151 155 157 159 162 163 165 168 171 173 174 173 172 174 178 182 188 191 195 199 201 203 205 208 211 213 216 218 219 220 221 221 220 221 221 221 221 221 222 221 221 222 224 224 224 224 224 224 224 225 227 227 227 228 228 228 228 229 230 231 233
133 131 127 124 126 126 124 122 121 120 121 123 129 139 148 157 163 161 152 146 144 144 144 146 148 150 153 154 156 157 160 161 163 166 169 170 171 174 178 180 181 184 188 193 197 202 205 206 207 209 211 213 215 218 217 218 221 222 221 221 221 220 220 220 220 220 220 220 221 222 222 223 223 223 222 222 223 224 224 224 223 224 225 226 228 231 234
142 138 133 131 131 131 128 125 123 123 124 125 129 134 140 145 150 151 150 150 150 151 151 149 146 145 145 147 151 155 156 158 160 164 169 174 177 184 190 195 198 199 200 201 203 206 210 213 214 214 214 213 214 216 217 218 220 220 220 220 220 220 220 219 219 219 220 220 220 221 221 222 223 223 222 222 223 223 223 224 224 226 227 229 232 234 236
148 144 139 136 136 136 134 131 128 128 130 131 134 137 139 140 141 141 142 144 148 151 154 150 144 142 142 144 150 154 158 162 166 171 179 185 190 197 203 208 212 215 217 218 218 219 220 222 223 224 223 221 220 220 220 221 222 221 221 221 220 220 220 219 218 219 219 219 220 220 220 220 221 222 222 223 224 224 225 226 227 228 230 231 232 233 234
152 148 144 141 141 141 139 136 132 131 131 132 134 136 137 136 133 129 129 135 141 148 156 159 154 150 148 150 154 158 163 171 178 186 193 198 202 206 210 212 215 218 220 222 223 224 225 226 227 229 229 228 227 227 226 225 225 224 224 224 223 221 220 218 218 218 218 218 219 219 219 219 218 220 221 222 222 223 224 225 226 227 227 228 228 229 231
155 154 153 150 148 145 141 136 132 130 129 130 133 136 137 138 133 125 120 123 132 141 153 161 162 164 170 177 180 181 184 188 192 197 203 207 210 214 215 215 214 213 215 217 217 216 217 218 221 223 224 226 227 228 228 228 227 226 226 224 223 221 219 218 217 217 216 217 218 218 218 216 217 218 218 218 219 221 221 222 222 223 222 222 223 223 225
157 158 159 157 152 146 140 135 133 132 131 132 134 137 141 143 140 132 123 122 129 142 154 159 166 180 195 203 204 199 194 191 192 199 206 211 214 218 219 219 214 209 207 206 205 204 206 209 212 215 218 220 223 224 225 227 227 226 225 224 222 220 218 217 217 216 216 217 217 218 218 217 218 219 219 219 219 220 220 220 219 217 214 212 211 211 212
168 166 163 161 155 147 141 140 142 143 142 140 138 137 139 143 142 137 132 128 132 148 168 178 180 184 194 209 208 190 177 182 180 175 175 182 193 200 204 204 203 200 199 198 199 202 204 207 211 214 216 219 221 221 221 222 222 221 221 220 218 217 215 214 214 214 214 214 214 215 216 216 217 218 218 219 219 218 216 214 211 206 203 200 199 200 202
182 179 172 166 162 156 151 149 154 157 153 148 145 139 135 136 137 135 134 133 136 161 197 214 211 201 208 217 192 151 136 140 139 134 135 148 164 177 189 200 204 201 197 194 193 195 200 205 211 215 216 216 218 218 217 215 214 214 214 213 212 211 210 209 209 209 209 210 210 210 210 211 213 214 214 214 213 212 209 207 204 201 197 194 193 194 194
193 191 186 178 173 173 171 166 164 164 159 156 156 150 139 134 135 138 141 145 160 193 209 223 240 240 215 171 147 134 127 127 128 128 136 154 172 184 192 192 182 170 164 162 161 166 176 186 195 202 205 204 204 205 208 208 207 208 208 208 207 207 206 205 205 205 205 205 204 204 204 204 205 206 207 206 205 204 203 203 200 196 191 189 189 188 188
201 199 196 189 184 183 182 176 171 168 164 164 167 167 161 154 152 159 168 170 184 201 199 246 271 233 168 145 135 128 126 129 132 134 143 152 155 147 144 143 142 143 144 144 143 144 148 152 162 178 188 190 185 179 182 190 193 196 198 199 201 203 202 202 201 200 200 200 199 198 199 201 202 201 200 199 200 201 200 196 191 187 185 185 186 187 190
206 205 201 196 192 190 184 177 174 172 169 170 175 183 191 190 182 187 191 182 189 194 161 101 193 161 144 134 126 125 129 129 125 126 133 137 136 135 134 132 132 136 143 145 141 137 133 134 149 172 180 178 170 161 159 166 173 177 181 184 188 192 193 194 195 196 197 199 197 194 193 196 202 205 201 196 195 193 190 185 183 182 183 184 187 190 193
206 207 206 201 198 194 186 178 177 177 176 177 181 195 209 212 210 210 198 184 184 172 138 127 138 142 136 128 126 128 126 121 117 121 129 135 137 138 134 129 129 137 148 146 135 124 112 103 107 143 168 170 165 159 158 161 163 165 166 167 170 174 177 181 186 191 192 193 196 196 190 185 189 198 196 187 183 181 180 179 180 181 183 186 189 191 189
203 206 207 205 203 200 194 188 186 186 185 183 187 202 215 218 218 214 198 184 182 166 147 140 141 141 136 134 135 131 123 119 119 122 126 130 134 134 130 127 129 132 132 123 110 100 93 84 76 98 152 165 163 158 158 161 161 160 159 157 157 158 160 163 168 172 172 175 187 192 182 169 169 179 180 176 175 176 177 178 180 182 184 187 188 186 184
202 204 207 207 206 205 203 200 198 196 194 193 198 210 216 216 218 214 196 182 179 171 159 152 150 149 149 148 141 133 124 120 120 121 122 123 124 125 127 128 126 120 114 109 103 97 94 90 86 97 134 151 152 148 149 151 150 149 150 152 154 154 151 148 149 152 153 159 171 176 168 161 163 172 174 173 174 176 177 180 182 183 184 184 184 184 185
202 203 206 208 208 208 208 208 207 205 205 208 211 215 215 214 215 211 195 181 179 175 166 161 158 155 153 149 142 134 127 123 121 120 120 119 119 122 126 125 120 115 112 112 111 108 106 106 106 111 125 135 139 139 139 138 136 135 137 141 146 147 143 141 143 146 146 149 157 162 162 163 166 169 172 173 175 178 181 184 184 183 182 182 184 186 189
203 203 205 207 208 209 211 211 211 212 215 218 216 214 212 212 214 209 194 182 178 174 167 161 159 156 152 148 143 137 131 127 124 123 122 121 121 122 123 120 117 116 116 115 114 113 114 115 115 117 122 127 128 127 126 124 124 126 127 129 133 137 139 142 147 148 147 150 156 162 163 166 169 171 173 176 179 182 184 185 184 183 184 185 188 192 194
206 204 205 207 208 209 212 213 214 216 219 219 215 211 210 210 211 206 195 185 178 172 164 159 158 156 153 149 146 141 136 132 129 127 126 125 124 124 124 122 120 120 119 117 116 116 116 117 117 118 119 121 120 119 118 119 122 125 126 128 131 135 139 144 149 152 153 158 163 166 167 170 173 177 179 181 183 184 184 185 185 186 189 192 195 199 201
207 206 206 207 208 209 212 214 215 217 218 216 211 208 208 209 209 205 197 189 181 173 166 162 161 161 158 154 153 149 143 139 137 134 131 130 129 128 127 125 124 124 123 120 119 118 117 116 116 116 116 117 117 118 119 123 126 129 132 135 139 143 146 150 155 159 163 166 168 170 172 174 177 180 183 184 185 185 185 187 190 192 197 202 205 206 205
205 206 206 206 207 209 211 213 214 215 214 212 208 206 206 207 207 206 201 194 186 178 172 169 169 168 165 162 161 160 155 150 149 146 142 140 138 136 134 132 132 132 130 127 125 124 122 119 118 118 117 117 117 118 121 124 126 129 133 137 143 149 153 158 161 164 167 170 173 175 176 177 179 183 186 187 188 189 190 192 196 201 206 208 208 206 205
203 204 204 204 206 207 208 210 210 209 208 207 206 205 205 205 206 206 203 198 191 185 180 177 176 176 174 170 169 169 170 168 165 162 158 155 152 150 148 146 145 145 142 139 137 135 131 128 126 124 123 122 123 123 124 126 127 129 133 137 143 149 154 159 163 166 169 173 177 181 182 183 184 188 190 192 193 195 196 199 203 207 210 210 209 206 202
201 201 201 202 203 204 205 205 205 206 206 206 205 205 205 205 206 207 205 202 197 191 188 186 184 184 183 181 179 179 181 181 179 178 176 172 167 164 162 160 159 160 158 156 154 151 145 140 136 132 131 132 133 134 134 134 133 133 136 140 144 149 154 159 164 168 172 176 181 185 189 191 192 193 196 198 198 198 200 202 205 208 210 210 208 204 200
201 200 200 201 202 203 204 205 205 206 207 206 205 204 205 205 206 206 206 204 202 198 194 193 192 191 190 190 189 189 189 189 188 188 187 184 182 179 175 172 171 172 172 171 170 169 166 161 154 151 150 152 152 151 150 148 144 144 146 149 150 154 159 163 166 170 175 179 183 187 191 195 197 197 198 200 200 200 200 202 205 207 208 208 206 202 198
204 203 203 203 203 204 206 207 208 208 208 207 205 204 205 206 207 206 205 204 204 203 200 198 198 199 199 199 198 198 197 197 197 196 194 192 190 187 185 184 184 183 184 185 187 188 189 188 184 179 177 175 170 166 163 164 163 161 159 157 156 157 159 163 167 171 175 179 183 187 191 195 197 196 195 196 197 197 197 199 201 203 204 204 202 198 197
206 206 206 206 206 206 207 209 210 210 209 207 206 205 206 207 208 208 206 206 206 206 205 203 203 204 205 205 206 206 205 204 204 205 203 200 196 193 192 193 194 196 199 201 202 205 210 214 216 219 221 217 205 188 185 192 196 189 179 173 169 165 163 164 167 171 176 180 184 187 190 191 192 192 192 193 195 196 196 198 199 200 199 198 197 196 198
209 209 209 209 209 208 208 209 211 211 209 208 207 207 208 209 208 208 208 208 208 208 208 207 207 208 209 210 211 212 211 210 210 210 209 207 206 203 202 203 205 210 215 217 215 215 222 229 232 234 234 229 220 210 206 207 208 205 198 196 194 188 182 179 179 180 185 188 190 192 193 194 193 192 193 196 199 200 201 202 202 200 198 196 196 198 203
213 212 212 212 211 210 209 210 211 211 209 208 208 209 210 210 209 208 208 209 210 210 211 210 210 210 212 213 215 216 215 215 215 215 215 215 216 217 216 218 220 224 228 230 227 223 227 233 235 234 231 227 221 218 216 215 213 210 208 208 209 208 206 202 199 198 200 201 200 199 199 199 199 200 201 204 206 207 207 208 207 204 201 199 201 205 213
214 215 215 214 214 212 211 211 211 211 210 209 209 209 210 210 210 210 210 210 210 211 212 212 212 213 213 214 216 218 219 218 220 221 220 222 225 226 228 230 233 234 237 239 237 230 229 231 230 226 224 221 219 218 218 217 216 216 215 214 214 216 217 216 214 212 212 211 208 205 202 199 200 203 206 208 209 210 210 209 208 205 203 203 207 214 221
215 216 216 216 215 214 213 212 211 211 211 210 210 210 210 211 211 211 211 212 212 212 213 214 214 215 216 217 219 221 222 223 224 226 226 227 230 231 233 237 239 240 241 241 237 230 225 224 221 218 218 219 219 220 220 220 221 224 225 223 222 223 224 225 225 223 221 219 214 209 205 202 203 205 207 208 209 211 212 210 208 206 206 208 213 220 226
216 216 217 217 216 215 214 212 211 210 210 210 209 210 210 211 212 212 212 212 213 214 215 215 216 217 218 219 221 223 225 226 227 229 230 231 232 232 234 237 240 240 239 237 230 223 221 221 217 216 218 219 220 222 225 226 229 231 232 231 231 231 231 232 232 232 230 227 221 215 210 207 207 208 210 211 212 213 213 213 212 211 212 216 221 227 231
217 216 216 217 217 216 214 213 211 210 210 210 209 210 210 211 213 213 213 213 214 215 216 216 216 218 219 220 221 223 225 226 228 230 231 232 232 232 234 238 240 240 237 232 223 218 220 222 220 218 220 221 221 223 227 229 231 234 235 236 237 237 237 237 238 238 238 236 230 222 216 212 212 213 215 217 219 219 218 217 218 220 222 225 229 233 236
Height
5488 5489 5490 5491 5493 5494 5496 5498 5501 5503 5506 5509 5511 5514 5516 5519 5521 5523 5525 5528 5531 5534 5537 5540 5543 5546 5549 5552 5555 5558 5561 5564 5567 5571 5574 5577 5580 5584 5587 5591 5596 5599 5603 5607 5611 5616 5620 5623 5627 5631 5634 5637 5641 5645 5649 5651 5654 5658 5661 5665 5668 5672 5676 5679 5681 5684 5687 5690 5694 5697 5700 5703 5706 5708 5710 5714 5717 5719 5723 5726 5728 5730 5733 5735 5737 5738 5739
5492 5493 5493 5495 5496 5497 5499 5501 5503 5506 5508 5510 5513 5515 5518 5520 5523 5525 5527 5530 5533 5536 5539 5542 5545 5548 5550 5553 5556 5560 5563 5566 5569 5572 5575 5578 5580 5583 5587 5591 5595 5598 5602 5606 5610 5614 5618 5621 5625 5629 5632 5635 5639 5643 5646 5650 5653 5657 5660 5664 5667 5671 5674 5677 5679 5682 5684 5687 5690 5693 5696 5699 5702 5705 5707 5711 5715 5718 5722 5724 5726 5728 5730 5732 5735 5735 5736
5496 5496 5497 5498 5499 5500 5502 5504 5506 5508 5510 5512 5514 5517 5519 5522 5524 5527 5529 5532 5535 5538 5541 5543 5546 5549 5552 5555 5558 5561 5565 5568 5571 5573 5575 5578 5581 5584 5587 5591 5595 5598 5602 5605 5610 5614 5617 5621 5624 5627 5630 5634 5638 5641 5644 5648 5652 5656 5659 5662 5666 5669 5671 5674 5677 5679 5682 5684 5686 5689 5693 5696 5699 5703 5706 5709 5712 5716 5719 5721 5723 5724 5727 5730 5732 5733 5734
5499 5500 5500 5502 5503 5504 5505 5507 5509 5510 5513 5515 5517 5519 5521 5524 5526 5529 5531 5534 5537 5539 5542 5545 5548 5551 5554 5557 5560 5563 5566 5569 5571 5573 5575 5577 5580 5584 5587 5591 5595 5599 5603 5606 5610 5613 5617 5620 5624 5626 5629 5632 5636 5639 5642 5646 5650 5654 5657 5660 5663 5667 5669 5672 5676 5679 5682 5684 5686 5690 5693 5695 5698 5701 5704 5707 5711 5714 5717 5719 5721 5723 5725 5728 5729 5731 5732
5503 5504 5504 5505 5507 5508 5509 5510 5512 5514 5515 5517 5519 5521 5523 5526 5529 5531 5533 5536 5539 5542 5545 5547 5550 5553 5556 5559 5562 5565 5567 5569 5571 5572 5574 5576 5579 5582 5586 5590 5594 5598 5603 5606 5609 5612 5616 5620 5623 5626 5629 5632 5635 5637 5641 5645 5648 5652 5655 5658 5661 5664 5668 5671 5675 5677 5680 5683 5687 5691 5693 5695 5698 5700 5703 5706 5709 5712 5714 5717 5719 5721 5723 5725 5727 5728 5730
5507 5508 5509 5510 5511 5512 5513 5515 5516 5518 5519 5520 5522 5525 5526 5529 5531 5534 5536 5539 5542 5544 5547 5550 5552 5555 5558 5561 5564 5566 5568 5570 5571 5571 5573 5575 5578 5581 5585 5589 5593 5597 5601 5605 5609 5612 5615 5619 5622 5625 5628 5631 5634 5636 5640 5644 5647 5650 5653 5657 5660 5663 5667 5670 5673 5676 5679 5683 5687 5690 5693 5695 5698 5701 5703 5705 5708 5711 5713 5715 5717 5719 5721 5722 5724 5725 5727
5512 5512 5513 5514 5515 5516 5517 5519 5520 5521 5522 5524 5526 5528 5530 5532 5535 5537 5540 5542 5545 5548 5550 5552 5556 5558 5561 5563 5565 5567 5569 5570 5571 5571 5572 5575 5578 5581 5584 5589 5593 5597 5601 5605 5609 5612 5615 5618 5621 5624 5627 5630 5633 5636 5639 5642 5646 5649 5652 5655 5659 5663 5666 5669 5672 5675 5679 5682 5686 5689 5692 5694 5697 5700 5702 5705 5707 5709 5711 5713 5715 5716 5718 5720 5721 5723 5724
5516 5517 5517 5518 5519 5520 5522 5523 5524 5525 5526 5528 5530 5531 5533 5536 5538 5541 5544 5546 5549 5552 5554 5557 5559 5562 5563 5565 5567 5569 5570 5570 5570 5571 5573 5575 5579 5582 5585 5589 5594 5598 5602 5606 5610 5614 5617 5619 5621 5624 5627 5630 5633 5636 5639 5642 5644 5648 5651 5655 5658 5662 5665 5668 5672 5675 5678 5682 5685 5687 5690 5693 5696 5698 5700 5702 5705 5707 5709 5711 5712 5714 5716 5718 5720 5721 5722
5521 5521 5522 5523 5524 5525 5526 5527 5528 5529 5530 5532 5534 5535 5537 5540 5542 5545 5548 5550 5553 5556 5558 5560 5562 5564 5565 5566 5568 5569 5570 5571 5572 5573 5576 5578 5580 5583 5587 5590 5594 5599 5603 5607 5611 5615 5618 5621 5623 5625 5629 5632 5634 5637 5640 5643 5645 5648 5651 5654 5658 5662 5665 5667 5671 5674 5677 5680 5683 5686 5689 5691 5694 5696 5698 5700 5702 5704 5707 5709 5710 5712 5714 5716 5717 5719 5720
5525 5526 5527 5528 5529 5529 5530 5531 5532 5533 5535 5536 5538 5540 5542 5544 5546 5548 5551 5554 5557 5559 5561 5563 5565 5566 5567 5568 5569 5570 5571 5572 5574 5576 5579 5582 5584 5586 5589 5591 5595 5599 5604 5607 5610 5615 5618 5620 5623 5626 5629 5631 5635 5638 5641 5644 5646 5649 5652 5655 5658 5662 5665 5668 5670 5673 5676 5679 5682 5684 5687 5689 5691 5693 5696 5698 5700 5702 5704 5706 5708 5710 5712 5713 5715 5717 5718
5530 5531 5532 5533 5533 5534 5535 5535 5536 5537 5539 5540 5542 5544 5546 5548 5550 5552 5555 5558 5560 5563 5565 5566 5567 5569 5570 5570 5571 5571 5573 5575 5576 5578 5581 5584 5586 5589 5592 5594 5597 5601 5604 5607 5611 5614 5617 5620 5623 5626 5628 5631 5633 5636 5640 5643 5646 5649 5653 5656 5659 5662 5665 5667 5670 5672 5675 5677 5680 5683 5685 5686 5688 5691 5694 5696 5698 5700 5702 5704 5706 5708 5709 5711 5713 5714 5716
5535 5536 5537 5537 5538 5539 5539 5540 5540 5541 5542 5544 5546 5548 5550 5552 5554 5556 5559 5561 5563 5566 5568 5569 5570 5571 5572 5573 5574 5574 5575 5577 5579 5581 5584 5586 5589 5592 5595 5597 5600 5603 5605 5608 5612 5615 5618 5620 5623 5625 5628 5631 5634 5636 5638 5641 5644 5647 5651 5654 5658 5661 5664 5666 5669 5672 5674 5676 5679 5681 5682 5684 5687 5690 5692 5694 5696 5698 5700 5702 5703 5705 5707 5708 5710 5711 5712
5541 5541 5542 5542 5542 5543 5544 5544 5545 5546 5547 5548 5550 5552 5554 5556 5558 5560 5562 5564 5567 5569 5571 5572 5573 5574 5575 5576 5577 5578 5579 5581 5583 5584 5587 5589 5592 5595 5597 5600 5603 5605 5607 5609 5613 5616 5618 5621 5624 5627 5629 5632 5634 5637 5639 5642 5644 5647 5649 5652 5656 5659 5662 5664 5667 5669 5672 5674 5676 5677 5680 5683 5686 5688 5690 5692 5694 5696 5697 5699 5700 5702 5704 5705 5707 5708 5709
5545 5546 5546 5546 5547 5547 5548 5548 5549 5550 5551 5553 5555 5556 5559 5561 5562 5564 5566 5567 5569 5572 5574 5574 5575 5577 5578 5579 5580 5581 5582 5584 5586 5588 5590 5592 5594 5597 5600 5602 5604 5607 5610 5612 5615 5617 5620 5623 5625 5628 5630 5633 5635 5637 5639 5642 5645 5647 5649 5651 5654 5657 5660 5663 5665 5667 5669 5671 5673 5676 5679 5682 5684 5686 5688 5690 5691 5693 5695 5696 5698 5699 5701 5702 5704 5705 5706
5550 5550 5550 5550 5550 5551 5551 5552 5553 5554 5555 5557 5559 5560 5562 5565 5566 5567 5569 5570 5571 5573 5576 5577 5578 5579 5580 5581 5583 5584 5585 5587 5589 5590 5592 5595 5597 5599 5602 5604 5605 5608 5610 5613 5615 5617 5620 5623 5626 5628 5630 5633 5635 5637 5639 5642 5644 5647 5649 5651 5653 5656 5658 5661 5663 5666 5668 5670 5673 5675 5677 5679 5682 5684 5685 5687 5689 5690 5692 5693 5695 5696 5698 5699 5700 5702 5703
5553 5554 5554 5554 5554 5554 5555 5556 5557 5558 5559 5561 5562 5564 5566 5568 5569 5571 5572 5573 5574 5576 5578 5579 5581 5582 5583 5584 5585 5587 5588 5590 5591 5593 5595 5596 5598 5600 5603 5605 5607 5609 5611 5614 5616 5618 5621 5623 5626 5628 5630 5632 5635 5637 5639 5641 5644 5646 5649 5651 5653 5655 5657 5660 5662 5664 5666 5669 5671 5672 5674 5677 5679 5681 5682 5684 5686 5687 5689 5690 5691 5693 5695 5696 5697 5698 5699
5557 5557 5557 5557 5557 5558 5558 5559 5560 5562 5563 5564 5566 5567 5569 5571 5572 5574 5575 5577 5578 5579 5580 5582 5583 5584 5585 5586 5588 5589 5591 5592 5594 5596 5597 5599 5600 5602 5604 5606 5608 5610 5613 5615 5618 5620 5622 5624 5626 5628 5630 5632 5635 5637 5639 5641 5643 5646 5648 5650 5652 5654 5656 5659 5661 5663 5665 5666 5668 5670 5672 5674 5676 5678 5680 5681 5683 5685 5686 5686 5688 5690 5692 5692 5694 5695 5696
5560 5560 5560 5560 5560 5560 5561 5562 5563 5564 5566 5567 5568 5570 5572 5574 5575 5577 5578 5579 5580 5582 5583 5584 5585 5586 5587 5588 5589 5591 5593 5594 5596 5598 5600 5601 5603 5604 5606 5608 5609 5612 5614 5616 5618 5620 5622 5624 5626 5628 5630 5632 5634 5636 5639 5641 5643 5645 5647 5649 5651 5653 5655 5657 5659 5661 5663 5664 5666 5667 5669 5671 5673 5675 5677 5679 5680 5681 5682 5683 5685 5688 5688 5689 5691 5692 5693
5563 5563 5563 5563 5563 5563 5564 5565 5566 5567 5568 5570 5571 5572 5574 5576 5577 5579 5581 5582 5583 5584 5585 5586 5587 5588 5589 5590 5591 5593 5594 5596 5598 5600 5601 5603 5604 5606 5607 5609 5611 5612 5614 5616 5618 5620 5622 5624 5626 5628 5630 5632 5634 5636 5638 5640 5642 5643 5645 5647 5649 5651 5653 5655 5657 5659 5660 5662 5663 5665 5667 5669 5671 5672 5674 5675 5676 5678 5679 5681 5683 5684 5685 5686 5688 5688 5690
5566 5566 5566 5566 5566 5567 5567 5569 5569 5570 5571 5572 5573 5575 5576 5577 5579 5581 5582 5584 5585 5586 5587 5588 5589 5590 5591 5592 5593 5594 5596 5597 5599 5600 5602 5603 5605 5606 5608 5609 5611 5613 5614 5616 5618 5619 5621 5623 5625 5627 5629 5631 5632 5634 5636 5638 5640 5642 5643 5645 5647 5649 5651 5653 5654 5656 5658 5659 5661 5662 5664 5666 5668 5669 5670 5671 5673 5675 5677 5678 5680 5681 5682 5684 5684 5685 5686
5568 5569 5569 5569 5570 5570 5570 5571 5572 5573 5573 5574 5575 5577 5578 5580 5582 5583 5584 5585 5586 5587 5588 5589 5590 5591 5592 5593 5594 5595 5597 5598 5599 5601 5602 5604 5605 5607 5608 5609 5611 5612 5614 5616 5617 5619 5621 5623 5624 5626 5628 5629 5631 5632 5634 5636 5638 5639 5641 5643 5644 5646 5648 5650 5652 5653 5655 5657 5658 5660 5661 5662 5664 5666 5667 5669 5671 5673 5674 5675 5677 5678 5680 5681 5682 5682 5683
5570 5571 5571 5572 5572 5573 5573 5574 5574 5575 5576 5577 5578 5580 5581 5583 5584 5585 5586 5587 5588 5589 5590 5590 5591 5592 5593 5594 5595 5596 5597 5599 5600 5601 5603 5604 5605 5607 5608 5610 5611 5612 5614 5615 5617 5619 5620 5622 5623 5625 5626 5628 5629 5631 5632 5634 5635 5637 5639 5640 5642 5644 5646 5647 5649 5650 5652 5654 5655 5657 5658 5659 5661 5663 5665 5667 5668 5670 5671 5673 5674 5675 5677 5678 5679 5679 5680
5572 5573 5574 5574 5575 5575 5576 5576 5577 5578 5579 5580 5581 5582 5584 5585 5586 5587 5588 5589 5590 5590 5591 5591 5592 5593 5594 5595 5596 5597 5598 5599 5601 5602 5603 5604 5605 5606 5608 5609 5610 5612 5613 5615 5616 5618 5619 5621 5622 5624 5625 5626 5628 5629 5631 5632 5633 5635 5636 5638 5639 5641 5643 5644 5646 5647 5649 5651 5652 5654 5655 5657 5659 5661 5662 5664 5666 5667 5669 5670 5671 5673 5674 5676 5676 5677 5678
5574 5575 5575 5576 5577 5577 5578 5579 5579 5580 5581 5583 5584 5585 5586 5587 5588 5589 5589 5590 5590 5591 5592 5592 5593 5594 5595 5596 5597 5598 5599 5600 5601 5602 5603 5604 5605 5606 5607 5608 5609 5611 5612 5613 5615 5616 5618 5619 5620 5622 5623 5625 5626 5628 5629 5630 5631 5632 5634 5635 5637 5638 5640 5642 5643 5645 5647 5649 5650 5652 5653 5655 5657 5658 5660 5661 5663 5664 5666 5667 5669 5670 5672 5673 5674 5675 5676
5575 5576 5577 5578 5579 5579 5580 5581 5582 5583 5584 5585 5586 5587 5588 5588 5589 5590 5590 5591 5591 5592 5592 5593 5594 5595 5596 5597 5597 5598 5599 5600 5601 5602 5603 5604 5605 5606 5607 5608 5609 5610 5611 5612 5613 5615 5616 5617 5618 5620 5621 5622 5624 5625 5626 5628 5629 5630 5631 5633 5634 5636 5638 5639 5641 5643 5644 5646 5648 5649 5651 5653 5654 5656 5657 5659 5660 5662 5663 5665 5667 5668 5669 5671 5672 5673 5674
5577 5578 5578 5579 5580 5581 5582 5583 5584 5585 5585 5586 5587 5588 5589 5589 5590 5591 5591 5591 5592 5592 5593 5594 5595 5595 5596 5597 5598 5599 5599 5600 5601 5602 5603 5604 5604 5605 5606 5607 5608 5609 5610 5611 5612 5613 5614 5615 5616 5617 5618 5620 5621 5622 5624 5625 5626 5628 5629 5631 5632 5634 5636 5637 5639 5640 5642 5644 5645 5647 5649 5650 5652 5653 5655 5656 5658 5660 5661 5663 5664 5666 5667 5668 5670 5671 5672
5578 5579 5580 5581 5581 5582 5583 5584 5585 5586 5587 5587 5588 5589 5590 5591 5591 5592 5592 5592 5593 5593 5594 5595 5595 5596 5597 5597 5598 5599 5599 5600 5601 5601 5602 5603 5603 5604 5605 5606 5607 5608 5609 5610 5611 5612 5613 5613 5614 5615 5616 5617 5619 5620 5621 5623 5624 5625 5627 5628 5630 5632 5633 5635 5636 5638 5640 5641 5643 5645 5646 5648 5650 5651 5653 5654 5656 5657 5659 5660 5662 5663 5665 5666 5667 5669 5670
5580 5580 5581 5582 5583 5584 5584 5585 5586 5587 5588 5589 5589 5590 5591 5591 5592 5593 5593 5593 5594 5594 5595 5595 5596 5596 5597 5597 5598 5599 5599 5600 5600 5600 5601 5601 5602 5602 5603 5604 5605 5606 5607 5608 5609 5610 5611 5612 5613 5614 5615 5615 5616 5618 5619 5620 5621 5623 5625 5626 5628 5629 5631 5633 5634 5636 5638 5639 5641 5643 5644 5646 5648 5649 5651 5652 5654 5655 5657 5658 5660 5661 5663 5664 5665 5667 5668
5580 5581 5582 5583 5584 5585 5585 5586 5587 5588 5589 5590 5590 5591 5592 5592 5593 5593 5594 5594 5594 5595 5595 5596 5596 5597 5597 5598 5598 5598 5599 5599 5599 5600 5600 5601 5601 5601 5602 5603 5604 5605 5606 5607 5608 5609 5609 5610 5611 5612 5613 5614 5614 5615 5616 5617 5619 5620 5622 5624 5625 5627 5629 5631 5632 5634 5636 5637 5639 5641 5643 5644 5646 5647 5649 5650 5652 5654 5655 5657 5658 5660 5661 5662 5664 5665 5666
5581 5582 5583 5583 5584 5585 5586 5587 5588 5589 5590 5591 5591 5592 5593 5593 5594 5594 5594 5595 5595 5595 5596 5596 5597 5597 5597 5598 5598 5598 5598 5599 5599 5599 5600 5600 5601 5601 5602 5602 5603 5604 5605 5605 5606 5607 5608 5609 5610 5610 5611 5612 5612 5613 5614 5615 5616 5618 5619 5621 5623 5625 5626 5628 5630 5632 5634 5636 5637 5639 5641 5642 5644 5646 5647 5649 5651 5652 5654 5655 5657 5658 5660 5661 5662 5664 5665
5580 5582 5583 5584 5585 5586 5587 5588 5589 5590 5590 5591 5592 5593 5594 5594 5595 5595 5595 5595 5596 5596 5596 5597 5597 5597 5597 5598 5598 5598 5598 5599 5599 5599 5600 5600 5600 5601 5601 5602 5602 5603 5604 5605 5606 5607 5607 5608 5608 5609 5610 5610 5611 5612 5613 5614 5615 5616 5618 5619 5621 5623 5625 5627 5629 5630 5632 5634 5636 5637 5639 5641 5643 5644 5646 5648 5649 5651 5652 5654 5655 5657 5658 5660 5661 5663 5664
5580 5581 5583 5584 5585 5586 5587 5588 5589 5590 5591 5592 5593 5593 5594 5595 5595 5595 5596 5596 5596 5597 5597 5597 5598 5598 5598 5598 5598 5598 5599 5599 5599 5599 5600 5600 5600 5601 5601 5602 5602 5603 5604 5605 5606 5607 5607 5608 5608 5608 5609 5609 5611 5611 5612 5613 5614 5615 5617 5618 5620 5622 5624 5625 5627 5629 5631 5632 5634 5636 5638 5640 5641 5643 5644 5646 5648 5650 5651 5653 5654 5656 5657 5659 5660 5662 5663
5579 5580 5582 5584 5585 5586 5587 5588 5589 5590 5591 5592 5593 5594 5594 5595 5595 5596 5596 5596 5597 5597 5597 5598 5598 5598 5599 5599 5599 5599 5599 5599 5600 5600 5600 5601 5601 5602 5602 5603 5604 5604 5605 5606 5606 5607 5608 5608 5608 5608 5608 5609 5610 5612 5613 5614 5614 5615 5617 5618 5619 5621 5623 5624 5626 5628 5629 5631 5633 5634 5636 5638 5640 5642 5643 5645 5647 5648 5650 5652 5653 5655 5656 5658 5659 5661 5662
5578 5579 5581 5583 5584 5586 5587 5588 5589 5590 5591 5592 5593 5594 5595 5595 5596 5596 5596 5597 5597 5598 5598 5599 5599 5599 5600 5600 5600 5600 5600 5600 5601 5601 5601 5602 5602 5603 5604 5604 5605 5606 5606 5607 5607 5607 5608 5608 5607 5607 5608 5609 5610 5612 5613 5614 5615 5616 5617 5618 5619 5621 5622 5624 5625 5627 5629 5631 5632 5634 5635 5637 5639 5641 5642 5644 5646 5647 5649 5651 5652 5654 5656 5657 5658 5660 5661
5576 5578 5580 5582 5583 5585 5586 5587 5589 5590 5591 5592 5593 5594 5595 5595 5596 5596 5597 5597 5598 5598 5599 5599 5600 5600 5601 5601 5601 5601 5601 5602 5602 5602 5603 5603 5604 5604 5605 5605 5606 5607 5607 5607 5608 5608 5608 5607 5607 5608 5608 5609 5611 5612 5613 5614 5615 5616 5617 5618 5619 5620 5622 5624 5625 5627 5628 5630 5632 5633 5634 5636 5638 5640 5642 5643 5645 5647 5649 5650 5652 5653 5655 5656 5658 5659 5661
5574 5576 5578 5580 5582 5584 5586 5587 5588 5589 5591 5592 5593 5594 5594 5595 5596 5597 5597 5598 5598 5599 5599 5600 5601 5601 5602 5602 5602 5602 5602 5603 5603 5603 5604 5604 5605 5606 5606 5607 5607 5608 5608 5608 5609 5609 5609 5609 5609 5609 5610 5611 5612 5613 5614 5615 5616 5617 5618 5619 5620 5621 5622 5624 5625 5627 5629 5630 5632 5634 5635 5636 5638 5640 5642 5643 5645 5647 5648 5650 5651 5653 5654 5656 5657 5659 5660
5572 5574 5576 5578 5581 5583 5584 5586 5587 5589 5590 5591 5593 5593 5594 5595 5596 5597 5597 5598 5599 5599 5600 5601 5601 5602 5602 5603 5603 5603 5604 5604 5604 5605 5605 5606 5606 5607 5608 5608 5609 5609 5610 5610 5611 5611 5611 5611 5612 5612 5613 5613 5614 5614 5615 5616 5617 5618 5619 5620 5621 5622 5623 5624 5626 5628 5630 5632 5633 5635 5636 5637 5639 5640 5642 5644 5645 5647 5648 5650 5651 5652 5654 5655 5656 5658 5659
5570 5572 5574 5577 5579 5581 5582 5584 5586 5588 5589 5591 5592 5593 5594 5595 5596 5597 5597 5598 5599 5600 5600 5601 5602 5602 5603 5604 5604 5605 5605 5606 5606 5607 5607 5607 5608 5609 5610 5610 5610 5611 5612 5612 5612 5613 5613 5614 5614 5615 5616 5616 5617 5617 5617 5618 5619 5620 5621 5622 5623 5624 5625 5626 5627 5629 5631 5633 5634 5636 5637 5638 5640 5641 5642 5644 5645 5647 5648 5649 5651 5652 5653 5655 5656 5657 5658
5568 5570 5572 5574 5577 5579 5580 5582 5584 5586 5588 5590 5591 5592 5593 5594 5595 5596 5597 5599 5599 5600 5601 5601 5602 5603 5604 5604 5605 5606 5607 5607 5608 5608 5609 5609 5610 5610 5611 5612 5612 5613 5613 5614 5614 5615 5615 5616 5616 5617 5618 5618 5618 5619 5619 5620 5621 5622 5623 5624 5625 5626 5627 5628 5629 5630 5632 5633 5635 5636 5637 5639 5640 5641 5642 5644 5645 5646 5647 5649 5650 5651 5653 5654 5655 5656 5657
5566 5568 5570 5572 5574 5576 5578 5580 5583 5584 5586 5588 5590 5591 5592 5594 5595 5596 5597 5598 5599 5600 5601 5602 5603 5604 5604 5605 5606 5607 5608 5608 5609 5609 5610 5611 5611 5612 5612 5613 5614 5614 5615 5615 5616 5616 5617 5618 5618 5619 5619 5619 5620 5620 5621 5622 5623 5624 5624 5625 5626 5627 5628 5630 5631 5632 5633 5634 5635 5636 5637 5639 5640 5641 5642 5643 5644 5646 5647 5648 5649 5651 5652 5653 5654 5655 5656
5565 5567 5569 5571 5573 5575 5576 5578 5581 5583 5585 5587 5589 5590 5591 5593 5594 5595 5597 5598 5599 5600 5601 5602 5603 5604 5605 5606 5607 5608 5609 5609 5610 5611 5611 5612 5613 5613 5614 5614 5615 5616 5616 5617 5617 5618 5618 5619 5619 5620 5620 5621 5621 5622 5623 5623 5624 5625 5625 5626 5627 5628 5629 5630 5631 5632 5633 5634 5635 5636 5637 5638 5639 5641 5642 5643 5644 5645 5646 5647 5649 5650 5651 5652 5653 5654 5655
5563 5565 5567 5569 5571 5573 5575 5577 5579 5581 5583 5585 5587 5588 5590 5592 5593 5594 5596 5597 5598 5599 5600 5602 5603 5604 5605 5606 5607 5608 5609 5610 5611 5611 5612 5613 5613 5614 5615 5615 5616 5617 5617 5618 5618 5619 5620 5620 5621 5621 5622 5622 5623 5623 5624 5625 5625 5626 5626 5627 5628 5629 5629 5630 5631 5632 5633 5634 5635 5636 5637 5638 5639 5640 5641 5642 5643 5644 5645 5646 5647 5648 5649 5650 5651 5652 5653
5561 5563 5565 5567 5569 5571 5573 5575 5577 5579 5581 5583 5585 5587 5589 5591 5592 5594 5595 5596 5597 5599 5600 5601 5602 5603 5605 5606 5607 5608 5609 5610 5611 5612 5612 5613 5614 5615 5615 5616 5617 5617 5618 5619 5619 5620 5621 5621 5622 5622 5623 5623 5624 5624 5625 5625 5626 5627 5627 5628 5628 5629 5630 5630 5631 5632 5632 5633 5634 5635 5636 5637 5638 5639 5640 5641 5642 5643 5644 5645 5646 5647 5648 5649 5650 5651 5652
5559 5561 5563 5565 5567 5569 5571 5573 5575 5577 5580 5582 5584 5586 5588 5590 5591 5592 5593 5595 5596 5597 5599 5600 5601 5603 5604 5605 5606 5607 5608 5609 5610 5611 5612 5613 5614 5615 5615 5616 5617 5618 5618 5619 5620 5620 5621 5622 5622 5623 5623 5624 5624 5625 5625 5626 5626 5627 5628 5628 5629 5629 5630 5630 5631 5632 5632 5633 5634 5635 5636 5636 5637 5638 5639 5640 5641 5642 5643 5644 5645 5646 5647 5648 5649 5650 5651
5557 5559 5561 5563 5565 5567 5569 5571 5573 5576 5578 5580 5583 5585 5586 5588 5589 5590 5591 5592 5594 5596 5597 5599 5600 5602 5603 5604 5605 5606 5608 5609 5610 5611 5612 5613 5614 5615 5615 5616 5617 5617 5618 5619 5619 5620 5621 5621 5622 5623 5623 5624 5624 5625 5625 5626 5626 5627 5628 5628 5629 5629 5630 5630 5631 5631 5632 5633 5633 5634 5635 5636 5637 5638 5638 5639 5640 5641 5642 5643 5644 5645 5646 5647 5648 5649 5650
5555 5557 5559 5561 5563 5565 5567 5569 5572 5574 5576 5579 5581 5582 5584 5585 5586 5588 5589 5591 5592 5594 5596 5597 5599 5600 5602 5603 5605 5606 5607 5608 5609 5610 5611 5612 5613 5614 5615 5616 5616 5617 5618 5618 5619 5620 5620 5621 5621 5622 5623 5623 5624 5624 5625 5625 5626 5626 5627 5628 5628 5629 5629 5630 5630 5631 5631 5632 5633 5633 5634 5635 5636 5637 5638 5639 5640 5641 5641 5642 5643 5644 5645 5646 5647 5648 5649
5552 5554 5556 5558 5560 5563 5565 5567 5570 5572 5574 5576 5578 5579 5581 5582 5584 5586 5587 5589 5590 5592 5594 5596 5598 5599 5601 5602 5603 5605 5606 5607 5608 5609 5610 5611 5613 5614 5614 5615 5616 5616 5616 5617 5618 5619 5620 5620 5621 5621 5622 5622 5623 5623 5624 5625 5625 5626 5626 5627 5627 5628 5629 5629 5630 5630 5631 5631 5632 5632 5633 5634 5635 5636 5637 5637 5638 5639 5640 5641 5642 5642 5643 5644 5645 5646 5647
5549 5551 5553 5556 5558 5560 5563 5565 5567 5569 5571 5573 5575 5577 5578 5580 5582 5583 5585 5587 5589 5590 5592 5594 5596 5597 5599 5601 5602 5603 5605 5606 5607 5608 5609 5610 5611 5612 5613 5614 5614 5615 5615 5616 5617 5619 5619 5619 5620 5621 5621 5622 5622 5623 5623 5624 5624 5625 5626 5626 5627 5627 5628 5629 5629 5629 5630 5630 5631 5631 5632 5633 5634 5635 5635 5636 5637 5638 5639 5639 5640 5641 5642 5643 5644 5645 5646
5546 5548 5550 5553 5555 5558 5560 5562 5564 5566 5568 5570 5572 5574 5576 5578 5579 5581 5583 5585 5586 5588 5590 5592 5594 5595 5597 5599 5600 5602 5603 5605 5606 5607 5608 5609 5610 5611 5612 5612 5612 5613 5613 5615 5616 5618 5618 5618 5619 5619 5620 5620 5621 5622 5622 5623 5624 5624 5625 5625 5626 5626 5627 5628 5628 5628 5629 5629 5630 5630 5631 5632 5633 5634 5635 5635 5636 5637 5638 5639 5639 5640 5641 5642 5643 5644 5644
5542 5545 5547 5550 5552 5554 5557 5559 5561 5563 5566 5568 5569 5571 5573 5575 5577 5579 5580 5582 5584 5586 5588 5590 5592 5593 5595 5597 5598 5600 5601 5603 5604 5605 5606 5607 5608 5609 5610 5610 5610 5611 5612 5614 5615 5616 5616 5617 5617 5618 5618 5619 5620 5620 5621 5621 5622 5623 5623 5624 5625 5625 5626 5626 5627 5627 5628 5628 5629 5629 5630 5631 5632 5633 5634 5634 5635 5636 5637 5637 5638 5639 5640 5641 5642 5642 5643
5539 5541 5544 5547 5549 5551 5553 5556 5558 5560 5562 5564 5566 5568 5570 5572 5574 5576 5578 5580 5582 5584 5585 5587 5589 5591 5593 5595 5596 5598 5599 5601 5602 5603 5604 5605 5606 5607 5608 5607 5608 5609 5611 5612 5613 5614 5615 5615 5616 5616 5617 5617 5618 5619 5619 5620 5621 5621 5622 5622 5623 5624 5624 5625 5625 5626 5626 5627 5627 5628 5629 5630 5631 5632 5633 5633 5634 5635 5635 5636 5637 5638 5639 5639 5640 5641 5641
5535 5538 5541 5543 5545 5548 5550 5552 5555 5557 5559 5561 5563 5565 5567 5569 5571 5573 5575 5577 5579 5581 5583 5585 5587 5588 5590 5592 5593 5595 5596 5598 5599 5601 5602 5603 5604 5604 5605 5605 5606 5607 5609 5611 5612 5612 5613 5614 5615 5615 5616 5616 5617 5617 5618 5619 5619 5620 5620 5621 5621 5622 5623 5623 5624 5624 5625 5625 5626 5627 5627 5628 5629 5630 5631 5632 5633 5633 5634 5635 5635 5636 5637 5638 5638 5639 5639